Terminal Aerodrome Forecast
Issued by NWS Austin/San Antonio, TX

Home | Current Version | Previous Version | Text Only | Print | Product List | Glossary On
Versions: 1 2 3 4 5 6 7 8 9 10 11 12 13 14 15
000
FTUS44 KEWX 010500
TAFDRT
TAF
KDRT 010529Z 0106/0206 12008KT P6SM SKC
     FM011200 12009KT P6SM BKN015
     FM011700 14011G17KT P6SM FEW030=

USA.gov is the U.S. government's official web portal to all federal, state and local government web resources and services.